Weather History for Pratt, KS

Change the Weather History Date:

Monday, October 3, 2011

  Actual Average (KP28) Record (KP28)
Temperature  
Mean Temperature 71 °F 64 °F  
Max Temperature 89 °F 77 °F 97 °F (1954)
Min Temperature 53 °F 51 °F 33 °F (1980)
Degree Days  
Heating Degree Days 0 4  
Month to date heating degree days 12  
Since 1 July heating degree days 46  
Cooling Degree Days 6 3  
Month to date cooling degree days 9  
Year to date cooling degree days 1740  
Growing Degree Days 21 (Base 50)    
Moisture  
Dew Point 39 °F    
Average Humidity 33    
Maximum Humidity 54    
Minimum Humidity 18    
Precipitation  
Precipitation 0.00 in 0.08 in 3.38 in (1926)
Month to date precipitation 0.26  
Year to date precipitation 22.71  
Snow  
Snow 0.00 in 0.00 in - ()
Month to date snowfall 0.0  
Since 1 July snowfall 0.0  
Since 1 September snowfall 0.0  
Snow Depth -    
Sea Level Pressure  
Sea Level Pressure 30.10 in    
Wind  
Wind Speed 12 mph (South)    
Max Wind Speed 20 mph    
Max Gust Speed 23 mph    
Visibility 10 miles    
Events      
T = Trace of Precipitation, MM = Missing Value Source: NWS Daily Summary

Daily Weather History Graph

Daily Weather History Graph

Search for Another Location

Airport:

Trip Planner

Search our weather history database for the weather conditions in past years. The results will help you decide how hot, cold, wet, or windy it might be!

Date:

Astronomy

Oct. 03, 2011 Rise Set
Actual Time 7:32 AM CDT 7:15 PM CDT
Civil Twilight 7:05 AM CDT 7:41 PM CDT
Nautical Twilight 6:35 AM CDT 8:11 PM CDT
Astronomical Twilight 6:05 AM CDT 8:42 PM CDT
Moon 2:25 PM CDT (10/3) No Moon Set
Length of Visible Light 12h 35m
Length of Day
11h 43m
Waxing Crescent, 45% of the Moon is Illuminated
Oct 3
Waxing Crescent
Oct 3
First Quarter
Oct 11
Full
Oct 19
Last Quarter
Oct 26
New

Hourly Weather History & Observations

Time (CDT) Temp. Dew Point Humidity Pressure Visibility Wind Dir Wind Speed Gust Speed Precip Events Conditions
12:35 AM 62.6 °F 35.6 °F 37% 30.12 in 10.0 mi SE 9.2 mph - N/A   Clear
12:55 AM 60.8 °F 35.6 °F 39% 30.12 in 10.0 mi SE 9.2 mph - N/A   Clear
1:15 AM 59.0 °F 35.6 °F 42% 30.12 in 10.0 mi SE 8.1 mph - N/A   Clear
1:35 AM 59.0 °F 35.6 °F 42% 30.12 in 10.0 mi SSE 9.2 mph - N/A   Clear
2:35 AM 55.4 °F 37.4 °F 51% 30.12 in 10.0 mi SSE 8.1 mph - N/A   Clear
3:15 AM 53.6 °F 37.4 °F 54% 30.11 in 10.0 mi SSE 8.1 mph - N/A   Clear
3:35 AM 53.6 °F 37.4 °F 54% 30.11 in 10.0 mi SSE 9.2 mph - N/A   Clear
3:55 AM 55.4 °F 37.4 °F 51% 30.11 in 10.0 mi SSE 9.2 mph - N/A   Clear
4:15 AM 59.0 °F 35.6 °F 42% 30.11 in 10.0 mi SSE 11.5 mph - N/A   Clear
4:35 AM 59.0 °F 35.6 °F 42% 30.10 in 10.0 mi SSE 12.7 mph - N/A   Clear
4:55 AM 59.0 °F 35.6 °F 42% 30.10 in 10.0 mi SSE 13.8 mph 18.4 mph N/A   Clear
5:15 AM 59.0 °F 35.6 °F 42% 30.10 in 10.0 mi SSE 13.8 mph - N/A   Clear
5:35 AM 59.0 °F 35.6 °F 42% 30.11 in 10.0 mi SSE 13.8 mph - N/A   Clear
5:55 AM 59.0 °F 35.6 °F 42% 30.11 in 10.0 mi SSE 12.7 mph - N/A   Clear
6:15 AM 57.2 °F 35.6 °F 44% 30.11 in 10.0 mi SSE 13.8 mph - N/A   Clear
6:35 AM 57.2 °F 35.6 °F 44% 30.11 in 10.0 mi SSE 12.7 mph - N/A   Clear
6:55 AM 57.2 °F 35.6 °F 44% 30.12 in 10.0 mi SSE 12.7 mph - N/A   Clear
7:15 AM 55.4 °F 35.6 °F 47% 30.12 in 10.0 mi South 12.7 mph - N/A   Clear
7:35 AM 55.4 °F 35.6 °F 47% 30.12 in 10.0 mi South 13.8 mph - N/A   Clear
7:55 AM 55.4 °F 35.6 °F 47% 30.12 in 10.0 mi SSE 13.8 mph - N/A   Clear
8:15 AM 57.2 °F 35.6 °F 44% 30.12 in 10.0 mi South 12.7 mph - N/A   Clear
8:35 AM 59.0 °F 35.6 °F 42% 30.12 in 10.0 mi South 12.7 mph - N/A   Clear
8:55 AM 59.0 °F 35.6 °F 42% 30.13 in 10.0 mi South 15.0 mph - N/A   Clear
9:15 AM 60.8 °F 35.6 °F 39% 30.13 in 10.0 mi South 15.0 mph - N/A   Clear
9:35 AM 62.6 °F 35.6 °F 37% 30.14 in 10.0 mi South 12.7 mph - N/A   Clear
9:55 AM 64.4 °F 35.6 °F 34% 30.13 in 10.0 mi South 16.1 mph - N/A   Clear
10:15 AM 66.2 °F 35.6 °F 32% 30.13 in 10.0 mi South 17.3 mph 20.7 mph N/A   Clear
10:35 AM 68.0 °F 35.6 °F 30% 30.13 in 10.0 mi South 16.1 mph - N/A   Clear
10:55 AM 68.0 °F 37.4 °F 33% 30.14 in 10.0 mi South 12.7 mph - N/A   Clear
11:15 AM 69.8 °F 37.4 °F 31% 30.14 in 10.0 mi South 13.8 mph 18.4 mph N/A   Clear
11:35 AM 73.4 °F 37.4 °F 27% 30.14 in 10.0 mi SSW 12.7 mph - N/A   Clear
11:55 AM 73.4 °F 37.4 °F 27% 30.14 in 10.0 mi South 13.8 mph - N/A   Clear
12:15 PM 77.0 °F 37.4 °F 24% 30.13 in 10.0 mi South 15.0 mph - N/A   Clear
12:35 PM 77.0 °F 39.2 °F 26% 30.13 in 10.0 mi South 13.8 mph - N/A   Clear
1:15 PM 80.6 °F 39.2 °F 23% 30.12 in 10.0 mi South 10.4 mph 17.3 mph N/A   Clear
1:35 PM 82.4 °F 41.0 °F 23% 30.12 in 10.0 mi SSW 10.4 mph 18.4 mph N/A   Clear
1:55 PM 82.4 °F 41.0 °F 23% 30.11 in 10.0 mi South 9.2 mph - N/A   Clear
2:35 PM 86.0 °F 41.0 °F 20% 30.09 in 10.0 mi South 10.4 mph 17.3 mph N/A   Clear
2:55 PM 86.0 °F 41.0 °F 20% 30.09 in 10.0 mi South 13.8 mph - N/A   Clear
3:15 PM 87.8 °F 41.0 °F 19% 30.08 in 10.0 mi South 12.7 mph 17.3 mph N/A   Clear
3:35 PM 87.8 °F 41.0 °F 19% 30.08 in 10.0 mi South 13.8 mph - N/A   Clear
3:55 PM 87.8 °F 41.0 °F 19% 30.08 in 10.0 mi South 15.0 mph 20.7 mph N/A   Clear
4:15 PM 89.6 °F 41.0 °F 18% 30.07 in 10.0 mi South 15.0 mph 18.4 mph N/A   Clear
4:55 PM 87.8 °F 41.0 °F 19% 30.07 in 10.0 mi South 16.1 mph - N/A   Clear
5:15 PM 87.8 °F 41.0 °F 19% 30.07 in 10.0 mi South 18.4 mph - N/A   Clear
5:35 PM 87.8 °F 41.0 °F 19% 30.06 in 10.0 mi South 19.6 mph 23.0 mph N/A   Clear
5:55 PM 87.8 °F 41.0 °F 19% 30.06 in 10.0 mi South 17.3 mph 21.9 mph N/A   Clear
6:15 PM 87.8 °F 41.0 °F 19% 30.07 in 10.0 mi South 16.1 mph - N/A   Clear
6:35 PM 86.0 °F 41.0 °F 20% 30.07 in 10.0 mi South 13.8 mph - N/A   Clear
6:55 PM 84.2 °F 42.8 °F 23% 30.07 in 10.0 mi South 12.7 mph 17.3 mph N/A   Clear
7:15 PM 82.4 °F 42.8 °F 25% 30.07 in 10.0 mi South 11.5 mph - N/A   Clear
7:35 PM 82.4 °F 42.8 °F 25% 30.07 in 10.0 mi South 11.5 mph - N/A   Clear
7:55 PM 80.6 °F 42.8 °F 26% 30.07 in 10.0 mi South 11.5 mph - N/A   Clear
8:15 PM 78.8 °F 42.8 °F 28% 30.08 in 10.0 mi South 15.0 mph - N/A   Clear
8:35 PM 78.8 °F 42.8 °F 28% 30.08 in 10.0 mi South 15.0 mph - N/A   Clear
8:55 PM 78.8 °F 44.6 °F 30% 30.09 in 10.0 mi South 13.8 mph - N/A   Clear
9:15 PM 77.0 °F 44.6 °F 32% 30.09 in 10.0 mi South 15.0 mph - N/A   Clear
9:35 PM 75.2 °F 44.6 °F 34% 30.09 in 10.0 mi South 15.0 mph - N/A   Clear
9:55 PM 73.4 °F 44.6 °F 36% 30.10 in 10.0 mi South 15.0 mph - N/A   Clear
10:15 PM 71.6 °F 44.6 °F 38% 30.10 in 10.0 mi South 11.5 mph - N/A   Clear
10:35 PM 71.6 °F 44.6 °F 38% 30.10 in 10.0 mi South 11.5 mph - N/A   Clear
10:55 PM 69.8 °F 44.6 °F 40% 30.10 in 10.0 mi South 12.7 mph - N/A   Clear
11:15 PM 68.0 °F 44.6 °F 43% 30.10 in 10.0 mi SSW 11.5 mph - N/A   Clear
11:35 PM 66.2 °F 44.6 °F 46% 30.10 in 10.0 mi South 10.4 mph - N/A   Clear
11:55 PM 64.4 °F 44.6 °F 49% 30.11 in 10.0 mi SSW 10.4 mph - N/A   Clear